Location: Newark
(45.5167°N, 11.1667°E)
Time: 13:02:16
(UTC+00:00)

Explorer 7 - Pass Details

Date: 16 December 2019
Orbit: 485 x 679 km, 50.3° (Epoch: 27 January)

Event Time Altitude Azimuth Distance (km) Brightness Sun altitude
Rises 20:22:03 0° 284° (WNW) 3,028 11.3 -49.4°
Enters shadow 20:22:26 - 282° (WNW) 2,914 11.1 -49.4°
Reaches altitude 10° 20:25:52 10° 255° (WSW) 2,089 - -50.0°
Maximum altitude 20:27:44 12° 232° (SW) 1,930 - -50.3°
Drops below altitude 10° 20:29:34 10° 209° (SSW) 2,054 - -50.6°
Sets 20:33:15 0° 179° (S) 2,918 - -51.2°
